Ellsworth AFB, SD

5:45 AM MST on January 18, 2018 (GMT -0700)
Ellsworth Air Force Base

Weather History for KRCA - September, 2013

Change the Weather History Date:

Saturday, September 14, 2013

  Actual Average Record
Temperature  
Mean Temperature 68 °F -  
Max Temperature 78 °F 73 °F 91 °F (1997)
Min Temperature 58 °F 48 °F 33 °F (2007)
Cooling Degree Days 3    
Growing Degree Days 18 (Base 50)    
Moisture  
Dew Point 59 °F    
Average Humidity 80    
Maximum Humidity 95    
Minimum Humidity 50    
Precipitation  
Precipitation 0.01 in - - ()
Sea Level Pressure  
Sea Level Pressure 29.88 in    
Wind  
Wind Speed 12 mph (North)    
Max Wind Speed 29 mph    
Max Gust Speed 37 mph    
Visibility 10 miles    
Events Rain    
Averages and records for this station are not official NWS values.
T = Trace of Precipitation, MM = Missing Value Source: NWS Daily Summary

Daily Weather History Graph

Daily Weather History Graph

Search for Another Location

Airport or City:

Trip Planner

Search our weather history database for the weather conditions in past years. The results will help you decide how hot, cold, wet, or windy it might be!

Date:

Astronomy

Sep. 14, 2013 Rise Set
Actual Time 6:30 AM MDT 7:04 PM MDT
Civil Twilight 6:01 AM MDT 7:33 PM MDT
Nautical Twilight 5:27 AM MDT 8:07 PM MDT
Astronomical Twilight 4:51 AM MDT 8:43 PM MDT
Moon 3:55 PM MDT (9/14) 12:56 AM MDT (9/14)
Length of Visible Light 13h 31m
Length of Day
12h 33m
Waxing Gibbous, 73% of the Moon is Illuminated
Sep 14
Waxing Gibbous
Sep 19
Full
Sep 26
Last Quarter
Oct 4
New
Oct 11
First Quarter

Hourly Weather History & Observations

Time (MDT) Temp. Dew Point Humidity Pressure Visibility Wind Dir Wind Speed Gust Speed Precip Events Conditions
12:22 AM 60.8 °F 57.2 °F 88% 29.88 in 10.0 mi South 13.8 mph - N/A   Overcast
12:57 AM 60.8 °F 57.2 °F 88% 29.87 in 10.0 mi South 15.0 mph - N/A   Overcast
12:58 AM 61.3 °F 57.7 °F 88% 29.83 in 10.0 mi South 15.0 mph - N/A   Overcast
1:38 AM 60.8 °F 57.2 °F 88% 29.86 in 10.0 mi South 13.8 mph - N/A   Overcast
1:58 AM 61.5 °F 57.9 °F 88% 29.81 in 10.0 mi SSE 13.8 mph - N/A   Overcast
2:58 AM 61.7 °F 58.1 °F 88% 29.79 in 10.0 mi South 9.2 mph - N/A   Overcast
3:23 AM 60.8 °F 59.0 °F 94% 29.83 in 10.0 mi South 8.1 mph - N/A   Mostly Cloudy
3:28 AM 60.8 °F 59.0 °F 94% 29.83 in 10.0 mi South 9.2 mph - N/A   Overcast
3:58 AM 61.2 °F 58.6 °F 91% 29.79 in 10.0 mi SSW 9.2 mph - N/A   Overcast
4:13 AM 60.8 °F 59.0 °F 94% 29.83 in 10.0 mi South 8.1 mph - N/A   Overcast
4:58 AM 60.6 °F 58.6 °F 93% 29.77 in 10.0 mi South 4.6 mph - N/A   Mostly Cloudy
5:58 AM 59.5 °F 57.7 °F 94% 29.79 in 4.0 mi South 6.9 mph - N/A   Clear
6:58 AM 58.6 °F 57.2 °F 95% 29.79 in 6.0 mi WSW 3.5 mph - N/A   Clear
7:58 AM 59.9 °F 58.5 °F 95% 29.79 in 10.0 mi West 2.3 mph - N/A   Clear
8:58 AM 67.1 °F 59.0 °F 75% 29.79 in 10.0 mi NNW 5.8 mph - N/A   Clear
9:58 AM 71.8 °F 58.8 °F 64% 29.78 in 10.0 mi NNW 5.8 mph - N/A   Clear
10:58 AM 74.3 °F 57.9 °F 57% 29.78 in 10.0 mi Variable 4.6 mph - N/A   Clear
11:58 AM 76.5 °F 56.7 °F 50% 29.76 in 10.0 mi North 11.5 mph - N/A   Clear
12:58 PM 77.0 °F 58.8 °F 53% 29.78 in 10.0 mi NNW 15.0 mph 19.6 mph N/A   Partly Cloudy
1:58 PM 78.1 °F 58.1 °F 50% 29.78 in 10.0 mi NNW 18.4 mph 24.2 mph N/A   Mostly Cloudy
2:58 PM 76.3 °F 59.7 °F 56% 29.78 in 10.0 mi NNW 28.8 mph 36.8 mph N/A   Mostly Cloudy
3:58 PM 73.9 °F 59.9 °F 61% 29.79 in 10.0 mi NW 26.5 mph 35.7 mph N/A   Mostly Cloudy
4:58 PM 72.3 °F 58.6 °F 62% 29.84 in 10.0 mi NNW 25.3 mph 28.8 mph N/A   Mostly Cloudy
5:58 PM 72.3 °F 59.2 °F 63% 29.87 in 10.0 mi North 20.7 mph 27.6 mph N/A   Clear
6:58 PM 68.9 °F 60.4 °F 74% 29.89 in 10.0 mi NNW 18.4 mph - N/A   Overcast
7:35 PM 68.0 °F 60.8 °F 78% 29.95 in 10.0 mi NNW 15.0 mph - N/A   Light Drizzle
7:47 PM 68.0 °F 62.6 °F 83% 29.96 in 10.0 mi North 11.5 mph - N/A Rain Light Rain
7:58 PM 66.9 °F 62.4 °F 85% 29.94 in 10.0 mi North 13.8 mph - 0.00 in Rain Light Rain
8:08 PM 66.2 °F 60.8 °F 83% 29.98 in 10.0 mi NNE 12.7 mph - N/A Rain Light Rain
8:12 PM 66.2 °F 60.8 °F 83% 29.98 in 10.0 mi North 11.5 mph - N/A   Overcast
8:19 PM 66.2 °F 60.8 °F 83% 29.98 in 10.0 mi North 9.2 mph - N/A   Light Drizzle
8:36 PM 66.2 °F 60.8 °F 83% 29.99 in 10.0 mi North 10.4 mph - N/A   Overcast
8:58 PM 65.3 °F 60.3 °F 84% 29.97 in 10.0 mi North 10.4 mph - 0.01 in   Overcast
9:13 PM 64.4 °F 60.8 °F 88% 30.01 in 10.0 mi North 10.4 mph - N/A   Overcast
9:23 PM 64.4 °F 60.8 °F 88% 30.01 in 10.0 mi North 12.7 mph - N/A   Overcast
9:58 PM 64.4 °F 59.9 °F 85% 29.97 in 10.0 mi North 10.4 mph - N/A   Overcast
10:18 PM 64.4 °F 60.8 °F 88% 30.03 in 10.0 mi North 10.4 mph - N/A   Overcast
10:58 PM 63.7 °F 59.5 °F 86% 29.99 in 7.0 mi North 10.4 mph - N/A   Mostly Cloudy
11:23 PM 62.6 °F 59.0 °F 88% 30.05 in 10.0 mi NNE 16.1 mph - N/A   Overcast
11:33 PM 62.6 °F 57.2 °F 82% 30.06 in 10.0 mi North 15.0 mph - N/A   Overcast
11:58 PM 61.3 °F 57.6 °F 87% 30.02 in 10.0 mi NNE 10.4 mph - N/A   Overcast